Вернуться в каталог

COSMOS 2251 DEB

АктивенLEO
NORAD 34689·DEBRIS·🇷🇺 Russia

Запущен Jun 16, 1993 с Plesetsk Cosmodrome

Loading…

Ближайшие Пролёты (ближайшие 24 часа)

TLE

СвежийSource: Space-Track

Эпоха: Sep 14, 2026, 13:50 UTC

1 34689U 93036YK  26257.57671941  .00003765  00000-0  17803-2 0  9995
2 34689  74.0847 102.0965 0225491 103.9298 289.0254 14.07536228882196

Отслеживайте COSMOS 2251 DEB в реальном времени с AllMySat

Download on the App Store